Kosmos-2307

operational
NORAD ID: 23511 Int'l Des: 1995-009 Owner: VKS Country: RU Constellation: GLONASS
MEOCIRCULAR

Über Kosmos-2307

Beschreibung wird geladen...

Live-Position

3D-Globus wird geladen...

Nächste Überflüge

Höhenverlauf

Altitude vs Time

uPlot chart will show altitude changes over time

Zweizeiliger Elementsatz

1 23511U 95009A 26032.43165979 -.00000042 00000-0 00000+0 0 9998
2 23511 64.1065 306.0539 0006192 121.7103 52.0800 2.13105369240309
Epoch: 1. Feb. 2026 • Age: 50 hours

Aktueller Status

Höhe 19153.6 km
Geschwindigkeit 3.95 km/s
Subsatellitenpunkt -30.44°S, 26.71°W
Startdatum 7. März 1995
Alter 30.9 years
Typ other

Technische Details

Klassifizierung Payload
Masse 1300.00 kg
Trockenmasse 1200.00 kg
Gesamtmasse 1300.00 kg
Länge 4.00 m
Durchmesser 1.50 m
Spannweite 7.80 m
Form Cyl + Ant + 2 Pan
Hersteller POL
Bus-Typ Uragan
Phasenstatus In Orbit
Besitzer/Staat VKS/RU

Große Konstellationen

Loading constellations...